User: anonymous   Login
Location: Newark
(54.0919°N, 2.6681°W)
Time: 01:59:11
(UTC+00:00)
Language:

SO-50 - Orbit

View from above orbital plane
View from above orbital plane
View from above satellite
View from above satellite

Ground track
Ground track

The orbit data is extracted from the following two-line orbital elements,

1 27607U 02058C   19342.84461613 -.00000057  00000-0  12827-4 0  9996
2 27607  64.5550 240.1973 0070303 222.4406 137.1248 14.75593788912586
Epoch (UTC): 08 December 2019 20:16:14
Eccentricity: 0.0070303
inclination: 64.5550°
perigee height: 594 km
apogee height: 692 km
right ascension of ascending node: 240.1973°
argument of perigee: 222.4406°
revolutions per day: 14.75593788
mean anomaly at epoch: 137.1248°
orbit number at epoch: 91258

The dashed part of the orbit path shows where the satellite is in the earth's shadow,  

DLR